Header for Extended Forecast Station List Page

Search by: ID | Name | Date | Parm | Value | Avg | % Avg
Sort by: ID | Name | Date | Parm | Value | Avg | % Avg

Enter search or view all records.

Click on id for station plot
#IDNameDateParmValueAvg% Avg
0MILI1SNAKE-AT MILNER01-13-2020DISCHARGE (KAF)107771
1BULO3BULLY CREEK-BULLY CREEK DAM01-13-2020INFLOW (KAF)4939
2BERO3MALHEUR-AGENCY VALLEY DAM01-13-2020INFLOW (KAF)304764
3SWAI1SNAKE-BELOW SWAN FALLS01-13-2020DISCHARGE (KAF)1771274065
4STRM8ST. REGIS-NEAR ST. REGIS01-13-2020DISCHARGE (KAF)8713166
5MONO3NF JOHN DAY-AT MONUMENT01-13-2020DISCHARGE (KAF)32048166
6SERO3JOHN DAY-AT SERVICE CK01-13-2020DISCHARGE (KAF)48472067
7MAGI1BIG WOOD-MAGIC DAM01-13-2020INFLOW (KAF)8412468
8ANAW1SNAKE-NEAR ANATONE01-13-2020DISCHARGE (KAF)5936870068
9NOXM8CLARK FORK-NOXON RAPIDS DAM01-13-2020INFLOW (KAF)3206461469
10WEII1SNAKE-AT WEISER01-13-2020DISCHARGE (KAF)3285478869
11LGDW1SNAKE-LOWER GRANITE DAM01-13-2020INFLOW (KAF)87181256969
12LGSW1SNAKE-LITTLE GOOSE DAM01-13-2020INFLOW (KAF)87181260969
13JKSW4SNAKE-NEAR JACKSON01-13-2020DISCHARGE (KAF)28540570
14LMNW1SNAKE-LOWER MONUMENTAL DAM01-13-2020INFLOW (KAF)90351289270
15BRNI1SNAKE-BROWNLEE DAM01-13-2020INFLOW (KAF)3631513271
16IHDW1SNAKE-ICE HARBOR DAM01-13-2020INFLOW (KAF)90351273371
17WRMO3MALHEUR-WARM SPRINGS DAM01-13-2020INFLOW (KAF)547572
18WHBI1SALMON-AT WHITEBIRD01-13-2020DISCHARGE (KAF)1301177373
19CABI1CLARK FORK-CABINET GORGE DAM01-13-2020INFLOW (KAF)3578484474
20SPDI1CLEARWATER-AT SPALDING01-13-2020DISCHARGE (KAF)2782375174
21BFTI1SNAKE-NEAR BLACKFOOT01-13-2020DISCHARGE (KAF)803107375
22PITW1KLICKITAT-NEAR PITT01-13-2020DISCHARGE (KAF)36348275
23PIHI1PORTNEUF-AT POCATELLO01-13-2020DISCHARGE (KAF)719376
24ALPW4SNAKE-NEAR ALPINE01-13-2020DISCHARGE (KAF)41553977
25EMMI1PAYETTE-NEAR EMMETT01-13-2020DISCHARGE (KAF)54370677
26WGCM8MF FLATHEAD-NEAR WEST GLACIER01-13-2020DISCHARGE (KAF)29537778
27CLFW1NACHES-NEAR CLIFFDEL01-13-2020DISCHARGE (KAF)15519878
28RILW1TIETON-RIMROCK LAKE NEAR RIMROCK01-13-2020INFLOW (KAF)769878
29KERM8FLATHEAD-KERR DAM01-13-2020INFLOW (KAF)1698214279
30ALFW1PEND OREILLE-ALBENI FALLS DAM01-13-2020INFLOW (KAF)4648587879
31CHDW1CHELAN-LAKE CHELAN DAM01-13-2020INFLOW (KAF)23629979
32KIOW1YAKIMA-AT KIONA01-13-2020DISCHARGE (KAF)74894979
33SNAI1SNAKE-AT BLACKFOOT01-13-2020DISCHARGE (KAF)813102979
34AFRI1SNAKE-AMERICAN FALLS RESERVOIR01-13-2020INFLOW (KAF)1407179179
35PLDI1SF SNAKE-PALISADES DAM01-13-2020INFLOW (KAF)72190180
36HALI1BIG WOOD-AT HAILEY01-13-2020DISCHARGE (KAF)556881
37BONO3COLUMBIA-BONNEVILLE DAM01-13-2020INFLOW (KAF)372244611781
38SRGM8CLARK FORK-AT ST REGIS01-13-2020DISCHARGE (KAF)1081131282
39SHYI1SNAKE-NEAR SHELLEY01-13-2020DISCHARGE (KAF)951115782
40HWRI1BIG LOST-AT HOWELL RANCH NEAR CHILLY01-13-2020DISCHARGE (KAF)242982
41UMAO3UMATILLA-NEAR UMATILLA01-13-2020DISCHARGE (KAF)14718082
42OWYO3OWYHEE-OWYHEE DAM01-13-2020INFLOW (KAF)26331683
43LEOI1KOOTENAI-AT LEONIA01-13-2020DISCHARGE (KAF)1534182784
44LWRI1LITTLE WOOD-LITTLE WOOD DAM01-13-2020INFLOW (KAF)323984
45TCHW1WALLA WALLA-NEAR TOUCHET01-13-2020DISCHARGE (KAF)18722184
46TDAO3COLUMBIA-THE DALLES DAM01-13-2020INFLOW (KAF)362684321084
47SATI1ST MARIES-NEAR SANTA01-13-2020DISCHARGE (KAF)10712685
48TONW1OKANOGAN-NEAR TONASKET01-13-2020DISCHARGE (KAF)38845685
49PARW1YAKIMA-NEAR PARKER01-13-2020DISCHARGE (KAF)52061385
50HEII1SNAKE-NEAR HEISE01-13-2020DISCHARGE (KAF)80094285
51ARDW1ENTIAT-NEAR ARDENVOIR01-13-2020DISCHARGE (KAF)404786
52MYKO3MCKAY CREEK-NEAR PILOT ROCK01-13-2020DISCHARGE (KAF)364286
53UNDW1WHITE SALMON-NEAR UNDERWOOD01-13-2020DISCHARGE (KAF)30034886
54CFMM8FLATHEAD-AT COLUMBIA FALLS01-13-2020DISCHARGE (KAF)1439164787
55TRYO3GRANDE RONDE-TROY01-13-2020DISCHARGE (KAF)76787288
56JDAO3COLUMBIA-JOHN DAY DAM01-13-2020INFLOW (KAF)357684054088
57SIFI1SNAKE-AB EAGLE ROCK NR IDAHO FALLS01-13-2020DISCHARGE (KAF)1006113189
58ARAI1SF BOISE-ANDERSON RANCH DAM01-13-2020INFLOW (KAF)20122589
59MCDW1COLUMBIA-MCNARY DAM01-13-2020INFLOW (KAF)339223827889
60MODO3DESCHUTES-AT MOODY NR BIGGS01-13-2020DISCHARGE (KAF)1430160789
61BITM8BITTERROOT-NEAR MISSOULA01-13-2020DISCHARGE (KAF)33537290
62HOTI1BRUNEAU-NEAR HOT SPRINGS01-13-2020DISCHARGE (KAF)839290
63DEDI1DEADWOOD-NEAR LOWMAN01-13-2020INFLOW (KAF)363990
64DLGM8CLARK FORK-AT DEER LODGE01-13-2020DISCHARGE (KAF)606691
65LLKW1SPOKANE-AT LONGLAKE01-13-2020INFLOW (KAF)2320255291
66NACW1NACHES-NEAR NACHES01-13-2020DISCHARGE (KAF)20522691
67LYDM8KOOTENAI-LIBBY DAM01-13-2020INFLOW (KAF)1164126892
68RCCM8ROCK CREEK-NEAR CLINTON01-13-2020DISCHARGE (KAF)667292
69BELM8CLARK FORK-BELOW MISSOULA01-13-2020DISCHARGE (KAF)85192792
70PATW1METHOW-NEAR PATEROS01-13-2020DISCHARGE (KAF)20322092
71JLKW4SNAKE-JACKSON LAKE AT DAM01-13-2020INFLOW (KAF)15817093
72CHJW1COLUMBIA-CHIEF JOSEPH DAM01-13-2020INFLOW (KAF)224962402594
73WELW1COLUMBIA-WELLS DAM01-13-2020INFLOW (KAF)230762467294
74RRHW1COLUMBIA-ROCKY REACH DAM01-13-2020INFLOW (KAF)235152510794
75ABOM8CLARK FORK-ABOVE MISSOULA01-13-2020DISCHARGE (KAF)51554495
76WSRI1WEISER-NEAR WEISER01-13-2020DISCHARGE (KAF)32233795
77PDTO3UMATILLA-AT PENDLETON01-13-2020DISCHARGE (KAF)18219295
78PESW1WENATCHEE-AT PESHASTIN01-13-2020DISCHARGE (KAF)51753297
79FCFM8NF FLATHEAD-NEAR COLUMBIA FALLS01-13-2020DISCHARGE (KAF)39440398
80BONM8BLACKFOOT-NEAR BONNER01-13-2020DISCHARGE (KAF)26026498
81CSDI1NF PAYETTE-CASCADE DAM01-13-2020INFLOW (KAF)20721198
82HHWM8SF FLATHEAD-HUNGRY HORSE DAM01-13-2020INFLOW (KAF)57557999
83COEI1COEUR D ALENE-COEUR D ALENE LAKE01-13-2020INFLOW (KAF)2091211199
84EASW1YAKIMA-AT EASTON01-13-2020DISCHARGE (KAF)10099101
85UMTW1YAKIMA-AT UMTANUM01-13-2020DISCHARGE (KAF)476469101
86TEAI1TETON-NEAR ST. ANTHONY01-13-2020DISCHARGE (KAF)129128101
87REXI1HENRYS FORK-AT REXBURG01-13-2020DISCHARGE (KAF)502496101
88GCDW1COLUMBIA-GRAND COULEE DAM01-13-2020INFLOW (KAF)2003919572102
89IPDI1HENRYS FORK-ISLAND PARK DAM01-13-2020INFLOW (KAF)133131102
90CHEI1FALL RIVER-NEAR CHESTER01-13-2020DISCHARGE (KAF)151149102
91ORFI1CLEARWATER-AT OROFINO01-13-2020DISCHARGE (KAF)21112080102
92PRWW1COLUMBIA-PRIEST RAPIDS DAM01-13-2020INFLOW (KAF)2403623335103
93WANW1COLUMBIA-WANAPUM DAM01-13-2020INFLOW (KAF)2403723088104
94ANTI1HENRYS FORK-AT ST. ANTHONY01-13-2020DISCHARGE (KAF)441423104
95DWRI1NF CLEARWATER-DWORSHAK DAM01-13-2020INFLOW (KAF)16261551105
96HODO3HOOD-NEAR TUCKER BRIDGE01-13-2020DISCHARGE (KAF)310292106
97BUDW1BUMPING-BUMPING LAKE DAM01-13-2020INFLOW (KAF)5450109
98GIBO3UMATILLA-NEAR GIBBON01-13-2020DISCHARGE (KAF)8878114
99TNAW1TEANAWAY-BELOW FORKS01-13-2020DISCHARGE (KAF)122106115
100PARI1BOISE-NEAR PARMA01-13-2020DISCHARGE (KAF)370315118
101PRTI1PRIEST-NEAR PRIEST RIVER01-13-2020DISCHARGE (KAF)458376122
102CLUW1CLE ELUM-CLE ELUM LAKE01-13-2020INFLOW (KAF)209171122
103LAUW1KETTLE-AT LAURIER01-13-2020DISCHARGE (KAF)718569126
104KADW1KACHESS-KACHESS DAM01-13-2020INFLOW (KAF)8968131
105KEDW1YAKIMA-KEECHELUS LAKE01-13-2020INFLOW (KAF)9870141
106BIGI1BOISE-AT GLENWOOD BRIDGE01-13-2020DISCHARGE (KAF)275179154
107RIDI1WILLOW CREEK-RIRIE DAM01-13-2020INFLOW (KAF)4730157
108MACI1BIG LOST-MACKAY RESERVOIR NEAR MACKAY01-13-2020INFLOW (KAF)3617206
109BFEI1KOOTENAI-AT BONNERS FERRY01-13-2020STAGE (FT)MMM
110DRMM8CLARK FORK-NR DRUMMOND01-13-2020DISCHARGE (KAF)170MM
111HOPI1PEND OREILLE-PEND OREILLE LAKE NR HOPE01-13-2020LAKE ELEVATION (FT)MMM
112SPOW1SPOKANE-AT SPOKANE01-13-2020DISCHARGE (KAF)1970MM
113SJMI1ST JOE-AT ST MARIES01-13-2020STAGE (FT)MMM
114CIBW1COLUMBIA-AT INTL BOUNDARY01-13-2020DISCHARGE (KAF)16842MM
115LUCI1BOISE-LUCKY PEAK DAM01-13-2020INFLOW (KAF)588MM